NEA325 KBOS-KSAV

Flight info

Callsign NEA325
Flight time 2h 11m
Altitude 36000
Route SSOXS7 SSOXS Q167 RIFLE HEADI Q97 ELMSZ SOOOP
Aircraft A321/M-SDE3FGHIRWY/LB1

Departure

Time 2026-04-16 21:25
Airport Boston Logan International Airport (KBOS)

Arrival

Time 2026-04-16 23:36
Airport Savannah Hilton Head International Airport (KSAV)
Time Latitude Longitude Altitude Speed Heading
2026-04-16 20:54 42.36038 -71.01909 31 ft 0 kts 30°
2026-04-16 21:16 42.36019 -71.01925 31 ft 4 kts 31°
2026-04-16 21:16 42.35998 -71.01942 30 ft 4 kts 42°
2026-04-16 21:17 42.35987 -71.01968 30 ft 4 kts 103°
2026-04-16 21:17 42.35996 -71.01995 30 ft 1 kts 121°
2026-04-16 21:17 42.35998 -71.02000 29 ft 0 kts 121°
2026-04-16 21:19 42.35998 -71.01999 29 ft 0 kts 121°
2026-04-16 21:19 42.35985 -71.01970 30 ft 10 kts 121°
2026-04-16 21:20 42.35960 -71.01913 28 ft 11 kts 121°
2026-04-16 21:20 42.35915 -71.01785 29 ft 12 kts 102°
2026-04-16 21:20 42.35892 -71.01681 29 ft 12 kts 131°
2026-04-16 21:20 42.35841 -71.01657 28 ft 12 kts 154°
2026-04-16 21:21 42.35799 -71.01526 28 ft 12 kts 108°
2026-04-16 21:21 42.35779 -71.01453 29 ft 12 kts 110°
2026-04-16 21:21 42.35763 -71.01392 28 ft 1 kts 110°
2026-04-16 21:21 42.35760 -71.01381 28 ft 2 kts 110°
2026-04-16 21:22 42.35755 -71.01361 30 ft 3 kts 110°
2026-04-16 21:22 42.35742 -71.01317 30 ft 10 kts 117°
2026-04-16 21:22 42.35664 -71.01302 25 ft 13 kts 198°
2026-04-16 21:22 42.35585 -71.01288 25 ft 12 kts 111°
2026-04-16 21:23 42.35586 -71.01240 25 ft 0 kts 77°
2026-04-16 21:24 42.35587 -71.01234 25 ft 3 kts 77°
2026-04-16 21:24 42.35625 -71.01008 26 ft 59 kts 76°
2026-04-16 21:24 42.35780 -71.00149 29 ft 126 kts 77°
2026-04-16 21:24 42.36003 -70.98828 397 ft 147 kts 78°
2026-04-16 21:25 42.36240 -70.97441 1054 ft 155 kts 83°
2026-04-16 21:25 42.36497 -70.95967 1432 ft 172 kts 83°
2026-04-16 21:25 42.36779 -70.94279 1569 ft 195 kts 81°
2026-04-16 21:25 42.37092 -70.92390 1767 ft 216 kts 81°
2026-04-16 21:26 42.37463 -70.90329 1960 ft 238 kts 79°
2026-04-16 21:26 42.37906 -70.88021 2068 ft 267 kts 79°
2026-04-16 21:26 42.38353 -70.85526 2567 ft 278 kts 79°
2026-04-16 21:26 42.38788 -70.82950 3193 ft 284 kts 81°
2026-04-16 21:27 42.38842 -70.80291 3792 ft 285 kts 105°
2026-04-16 21:27 42.38290 -70.77707 4455 ft 288 kts 110°
2026-04-16 21:27 42.37687 -70.75105 5115 ft 292 kts 114°
2026-04-16 21:27 42.36666 -70.72755 5731 ft 289 kts 137°
2026-04-16 21:28 42.35111 -70.71089 6353 ft 284 kts 159°
2026-04-16 21:28 42.33269 -70.70151 6963 ft 284 kts 168°
2026-04-16 21:28 42.31379 -70.69308 7585 ft 288 kts 167°
2026-04-16 21:28 42.29465 -70.68452 8217 ft 292 kts 167°
2026-04-16 21:29 42.27527 -70.67578 8853 ft 296 kts 167°
2026-04-16 21:29 42.25588 -70.66690 9461 ft 300 kts 167°
2026-04-16 21:29 42.23573 -70.65759 10070 ft 304 kts 167°
2026-04-16 21:29 42.21513 -70.64810 10326 ft 323 kts 167°
2026-04-16 21:30 42.19313 -70.63806 10441 ft 344 kts 167°
2026-04-16 21:30 42.16986 -70.62791 10728 ft 356 kts 171°
2026-04-16 21:30 42.14585 -70.62271 11255 ft 353 kts 182°
2026-04-16 21:30 42.12142 -70.62388 11846 ft 350 kts 193°
2026-04-16 21:31 42.09787 -70.63137 12449 ft 347 kts 203°
2026-04-16 21:31 42.07480 -70.64159 13048 ft 350 kts 203°
2026-04-16 21:31 42.05161 -70.65186 13642 ft 353 kts 203°
2026-04-16 21:31 42.02815 -70.66225 14176 ft 356 kts 203°
2026-04-16 21:32 42.00454 -70.67265 14717 ft 358 kts 203°
2026-04-16 21:32 41.98076 -70.68311 15248 ft 361 kts 203°
2026-04-16 21:32 41.95685 -70.69360 15788 ft 363 kts 204°
2026-04-16 21:32 41.93277 -70.70417 16338 ft 365 kts 204°
2026-04-16 21:33 41.90854 -70.71480 16865 ft 368 kts 204°
2026-04-16 21:33 41.88410 -70.72549 17395 ft 371 kts 204°
2026-04-16 21:33 41.85950 -70.73624 17922 ft 373 kts 204°
2026-04-16 21:33 41.83510 -70.74817 18395 ft 372 kts 210°
2026-04-16 21:34 41.81284 -70.76417 18842 ft 371 kts 215°
2026-04-16 21:34 41.78985 -70.78159 19315 ft 373 kts 214°
2026-04-16 21:34 41.76718 -70.79870 19796 ft 375 kts 214°
2026-04-16 21:34 41.74440 -70.81585 20278 ft 377 kts 214°
2026-04-16 21:35 41.72144 -70.83307 20756 ft 379 kts 214°
2026-04-16 21:35 41.69831 -70.85037 21225 ft 381 kts 214°
2026-04-16 21:35 41.67508 -70.86774 21680 ft 384 kts 214°
2026-04-16 21:35 41.65173 -70.88518 22129 ft 386 kts 214°
2026-04-16 21:36 41.62826 -70.90273 22600 ft 387 kts 214°
2026-04-16 21:36 41.60468 -70.92035 23030 ft 389 kts 214°
2026-04-16 21:36 41.58098 -70.93806 23416 ft 392 kts 214°
2026-04-16 21:36 41.55826 -70.95784 23756 ft 389 kts 223°
2026-04-16 21:37 41.53865 -70.98242 24105 ft 385 kts 232°
2026-04-16 21:37 41.52260 -71.01091 24444 ft 384 kts 239°
2026-04-16 21:37 41.50781 -71.04072 24784 ft 386 kts 239°
2026-04-16 21:37 41.49292 -71.07056 25124 ft 387 kts 239°
2026-04-16 21:38 41.47789 -71.10054 25470 ft 389 kts 239°
2026-04-16 21:38 41.46278 -71.13060 25797 ft 391 kts 239°
2026-04-16 21:38 41.44761 -71.16076 26104 ft 393 kts 239°
2026-04-16 21:38 41.43236 -71.19112 26382 ft 395 kts 239°
2026-04-16 21:39 41.41724 -71.22121 26692 ft 397 kts 239°
2026-04-16 21:39 41.40161 -71.25226 27002 ft 399 kts 239°
2026-04-16 21:39 41.38607 -71.28303 27320 ft 401 kts 238°
2026-04-16 21:39 41.37049 -71.31389 27631 ft 403 kts 238°
2026-04-16 21:40 41.35505 -71.34448 27933 ft 404 kts 238°
2026-04-16 21:40 41.33934 -71.37558 28230 ft 406 kts 238°
2026-04-16 21:40 41.32356 -71.40681 28514 ft 407 kts 238°
2026-04-16 21:40 41.30774 -71.43813 28804 ft 409 kts 238°
2026-04-16 21:41 41.29181 -71.46959 29086 ft 411 kts 238°
2026-04-16 21:41 41.27583 -71.50111 29372 ft 412 kts 238°
2026-04-16 21:41 41.25975 -71.53278 29649 ft 414 kts 238°
2026-04-16 21:41 41.24362 -71.56453 29956 ft 415 kts 238°
2026-04-16 21:42 41.22744 -71.59637 30252 ft 415 kts 238°
2026-04-16 21:42 41.21130 -71.62807 30592 ft 414 kts 238°
2026-04-16 21:42 41.19521 -71.65970 30945 ft 412 kts 238°
2026-04-16 21:42 41.17919 -71.69118 31279 ft 411 kts 238°
2026-04-16 21:43 41.16316 -71.72257 31610 ft 410 kts 238°
2026-04-16 21:43 41.14716 -71.75383 31926 ft 410 kts 238°
2026-04-16 21:43 41.13116 -71.78514 32231 ft 409 kts 238°
2026-04-16 21:43 41.11528 -71.81633 32547 ft 408 kts 238°
2026-04-16 21:44 41.09946 -71.84749 32850 ft 407 kts 238°
2026-04-16 21:44 41.08365 -71.87863 33153 ft 406 kts 238°
2026-04-16 21:44 41.06788 -71.90962 33475 ft 405 kts 238°
2026-04-16 21:44 41.05209 -71.94056 33781 ft 405 kts 238°
2026-04-16 21:45 41.03656 -71.97160 34050 ft 403 kts 242°
2026-04-16 21:45 41.02404 -72.00462 34319 ft 400 kts 247°
2026-04-16 21:45 41.01240 -72.03800 34600 ft 399 kts 246°
2026-04-16 21:45 41.00070 -72.07132 34879 ft 397 kts 246°
2026-04-16 21:46 40.98902 -72.10441 35146 ft 396 kts 246°
2026-04-16 21:46 40.97735 -72.13736 35424 ft 394 kts 246°
2026-04-16 21:46 40.96575 -72.17011 35708 ft 393 kts 246°
2026-04-16 21:46 40.95415 -72.20286 35854 ft 392 kts 246°
2026-04-16 21:47 40.94259 -72.23540 35888 ft 390 kts 246°
2026-04-16 21:47 40.91877 -72.29960 35888 ft 390 kts 240°
2026-04-16 21:48 40.88326 -72.35428 35887 ft 396 kts 229°
2026-04-16 21:48 40.84403 -72.40532 35894 ft 396 kts 229°
2026-04-16 21:49 40.80481 -72.45643 35905 ft 397 kts 228°
2026-04-16 21:49 40.76231 -72.50364 35930 ft 400 kts 224°
2026-04-16 21:50 40.71923 -72.55027 35934 ft 400 kts 224°
2026-04-16 21:50 40.67870 -72.59992 35943 ft 394 kts 234°
2026-04-16 21:51 40.64390 -72.65585 35942 ft 394 kts 234°
2026-04-16 21:51 40.60903 -72.71160 35945 ft 395 kts 234°
2026-04-16 21:52 40.57401 -72.76734 35944 ft 395 kts 234°
2026-04-16 21:52 40.53899 -72.82300 35937 ft 394 kts 234°
2026-04-16 21:53 40.50406 -72.87857 35937 ft 394 kts 234°
2026-04-16 21:53 40.46913 -72.93408 35922 ft 394 kts 233°
2026-04-16 21:54 40.43410 -72.98945 35927 ft 394 kts 234°
2026-04-16 21:54 40.39902 -73.04479 35924 ft 393 kts 234°
2026-04-16 21:55 40.36404 -73.10001 35925 ft 393 kts 234°
2026-04-16 21:55 40.32908 -73.15503 35924 ft 393 kts 234°
2026-04-16 21:56 40.29407 -73.21009 35904 ft 393 kts 233°
2026-04-16 21:56 40.25906 -73.26511 35906 ft 393 kts 233°
2026-04-16 21:57 40.22391 -73.32018 35927 ft 393 kts 233°
2026-04-16 21:57 40.18898 -73.37472 35925 ft 393 kts 233°
2026-04-16 21:58 40.15382 -73.42959 35925 ft 393 kts 233°
2026-04-16 21:58 40.11863 -73.48434 35902 ft 393 kts 233°
2026-04-16 21:59 40.08942 -73.52986 35900 ft 393 kts 233°
2026-04-16 21:59 40.05431 -73.58458 35912 ft 393 kts 233°
2026-04-16 22:00 40.01904 -73.63925 35915 ft 393 kts 233°
2026-04-16 22:00 39.98363 -73.69363 35938 ft 393 kts 231°
2026-04-16 22:01 39.93981 -73.73711 35912 ft 404 kts 211°
2026-04-16 22:01 39.88759 -73.76544 35916 ft 407 kts 208°
2026-04-16 22:02 39.83544 -73.79313 35916 ft 407 kts 208°
2026-04-16 22:02 39.78307 -73.82100 35916 ft 406 kts 208°
2026-04-16 22:03 39.73068 -73.84888 35898 ft 407 kts 208°
2026-04-16 22:03 39.67826 -73.87668 35902 ft 407 kts 208°
2026-04-16 22:04 39.62579 -73.90445 35906 ft 407 kts 208°
2026-04-16 22:04 39.57359 -73.93210 35917 ft 407 kts 208°
2026-04-16 22:05 39.52067 -73.96005 35915 ft 408 kts 208°
2026-04-16 22:05 39.46842 -73.98762 35919 ft 408 kts 208°
2026-04-16 22:06 39.41628 -74.01735 35934 ft 402 kts 216°
2026-04-16 22:06 39.35163 -74.08375 35920 ft 395 kts 225°
2026-04-16 22:07 39.30984 -74.12933 35921 ft 396 kts 224°
2026-04-16 22:07 39.26774 -74.17513 35924 ft 396 kts 224°
2026-04-16 22:08 39.22547 -74.22098 35920 ft 396 kts 224°
2026-04-16 22:08 39.18334 -74.26678 35931 ft 396 kts 224°
2026-04-16 22:09 39.14113 -74.31256 35909 ft 397 kts 224°
2026-04-16 22:09 39.09882 -74.35836 35930 ft 397 kts 224°
2026-04-16 22:10 39.05648 -74.40418 35940 ft 397 kts 225°
2026-04-16 22:10 39.01418 -74.44986 35943 ft 397 kts 225°
2026-04-16 22:11 38.97189 -74.49539 35930 ft 397 kts 224°
2026-04-16 22:11 38.92965 -74.54102 35925 ft 396 kts 225°
2026-04-16 22:12 38.88881 -74.58840 35929 ft 395 kts 227°
2026-04-16 22:12 38.84848 -74.63650 35930 ft 395 kts 227°
2026-04-16 22:13 38.80827 -74.68404 35928 ft 396 kts 227°
2026-04-16 22:13 38.76755 -74.73159 35905 ft 396 kts 226°
2026-04-16 22:14 38.72607 -74.77837 35919 ft 398 kts 224°
2026-04-16 22:14 38.68281 -74.82312 35917 ft 400 kts 223°
2026-04-16 22:15 38.63916 -74.86742 35935 ft 400 kts 223°
2026-04-16 22:15 38.59586 -74.91209 35921 ft 400 kts 224°
2026-04-16 22:16 38.55278 -74.95698 35923 ft 400 kts 224°
2026-04-16 22:16 38.50980 -75.00214 35938 ft 400 kts 225°
2026-04-16 22:17 38.46794 -75.04884 35938 ft 400 kts 225°
2026-04-16 22:17 38.42442 -75.09347 35953 ft 402 kts 221°
2026-04-16 22:18 38.37921 -75.13556 35933 ft 402 kts 220°
2026-04-16 22:18 38.33384 -75.17740 35937 ft 402 kts 221°
2026-04-16 22:19 38.28883 -75.21981 35944 ft 402 kts 221°
2026-04-16 22:19 38.24399 -75.26243 35949 ft 403 kts 221°
2026-04-16 22:20 38.19905 -75.30502 35952 ft 403 kts 221°
2026-04-16 22:20 38.15401 -75.34751 35925 ft 403 kts 221°
2026-04-16 22:21 38.10899 -75.38997 35933 ft 403 kts 221°
2026-04-16 22:21 38.06419 -75.43209 35948 ft 403 kts 221°
2026-04-16 22:22 38.01856 -75.47383 35958 ft 404 kts 220°
2026-04-16 22:22 37.97203 -75.51402 35935 ft 405 kts 219°
2026-04-16 22:23 37.92536 -75.55400 35949 ft 405 kts 219°
2026-04-16 22:23 37.87877 -75.59431 35954 ft 405 kts 219°
2026-04-16 22:24 37.83221 -75.63456 35958 ft 406 kts 218°
2026-04-16 22:24 37.78380 -75.67210 35950 ft 408 kts 216°
2026-04-16 22:25 37.73449 -75.70804 35927 ft 409 kts 215°
2026-04-16 22:25 37.68552 -75.74400 35930 ft 410 kts 216°
2026-04-16 22:26 37.63645 -75.78080 35936 ft 410 kts 216°
2026-04-16 22:26 37.58712 -75.81799 35949 ft 410 kts 216°
2026-04-16 22:27 37.53841 -75.85450 35955 ft 410 kts 216°
2026-04-16 22:27 37.49091 -75.89354 35955 ft 406 kts 220°
2026-04-16 22:28 37.44524 -75.93527 35950 ft 405 kts 221°
2026-04-16 22:28 37.39960 -75.97700 35950 ft 405 kts 220°
2026-04-16 22:29 37.35349 -76.01805 35934 ft 406 kts 220°
2026-04-16 22:29 37.30728 -76.05877 35934 ft 406 kts 220°
2026-04-16 22:30 37.26096 -76.09955 35937 ft 407 kts 220°
2026-04-16 22:30 37.21459 -76.14039 35941 ft 407 kts 220°
2026-04-16 22:31 37.16816 -76.18118 35955 ft 407 kts 220°
2026-04-16 22:31 37.12191 -76.22184 35927 ft 406 kts 220°
2026-04-16 22:32 37.07564 -76.26243 35932 ft 406 kts 220°
2026-04-16 22:32 37.02924 -76.30304 35936 ft 407 kts 220°
2026-04-16 22:33 36.98289 -76.34360 35977 ft 407 kts 220°
2026-04-16 22:33 36.93655 -76.38412 35976 ft 407 kts 220°
2026-04-16 22:34 36.89014 -76.42459 35943 ft 407 kts 220°
2026-04-16 22:34 36.84367 -76.46502 35957 ft 407 kts 220°
2026-04-16 22:35 36.79713 -76.50547 35977 ft 408 kts 220°
2026-04-16 22:35 36.75059 -76.54587 35990 ft 407 kts 220°
2026-04-16 22:36 36.70413 -76.58616 35964 ft 406 kts 220°
2026-04-16 22:36 36.65776 -76.62626 35974 ft 406 kts 220°
2026-04-16 22:37 36.61137 -76.66640 35971 ft 406 kts 220°
2026-04-16 22:37 36.57280 -76.69970 35977 ft 406 kts 220°
2026-04-16 22:38 36.52632 -76.73966 35974 ft 406 kts 220°
2026-04-16 22:38 36.47981 -76.77963 35948 ft 406 kts 220°
2026-04-16 22:39 36.43328 -76.81962 35948 ft 407 kts 220°
2026-04-16 22:39 36.38663 -76.85960 35959 ft 408 kts 220°
2026-04-16 22:40 36.34004 -76.89980 35988 ft 408 kts 221°
2026-04-16 22:40 36.29381 -76.94044 35993 ft 407 kts 221°
2026-04-16 22:41 36.24769 -76.98094 35977 ft 406 kts 221°
2026-04-16 22:41 36.20147 -77.02127 35983 ft 406 kts 220°
2026-04-16 22:42 36.15520 -77.06144 35986 ft 406 kts 220°
2026-04-16 22:42 36.10855 -77.10192 35990 ft 407 kts 220°
2026-04-16 22:43 36.06259 -77.14188 35996 ft 407 kts 220°
2026-04-16 22:43 36.01597 -77.18233 35970 ft 407 kts 220°
2026-04-16 22:44 35.96948 -77.22254 35975 ft 408 kts 220°
2026-04-16 22:44 35.92324 -77.26251 35991 ft 408 kts 221°
2026-04-16 22:45 35.87788 -77.30513 36000 ft 406 kts 224°
2026-04-16 22:45 35.83422 -77.34839 35996 ft 405 kts 224°
2026-04-16 22:46 35.78979 -77.39196 35979 ft 406 kts 223°
2026-04-16 22:46 35.74561 -77.43454 35974 ft 406 kts 223°
2026-04-16 22:47 35.70076 -77.47750 35988 ft 406 kts 223°
2026-04-16 22:47 35.65645 -77.51993 35984 ft 406 kts 223°
2026-04-16 22:48 35.61185 -77.56260 35981 ft 406 kts 223°
2026-04-16 22:48 35.56726 -77.60524 35980 ft 406 kts 223°
2026-04-16 22:49 35.52266 -77.64790 36026 ft 406 kts 223°
2026-04-16 22:49 35.47803 -77.69065 36036 ft 406 kts 223°
2026-04-16 22:50 35.43344 -77.73322 36034 ft 406 kts 223°
2026-04-16 22:50 35.38869 -77.77575 36034 ft 406 kts 223°
2026-04-16 22:51 35.34396 -77.81809 36029 ft 406 kts 223°
2026-04-16 22:51 35.29928 -77.86051 36030 ft 406 kts 223°
2026-04-16 22:52 35.25464 -77.90289 36030 ft 406 kts 223°
2026-04-16 22:52 35.20997 -77.94519 36030 ft 406 kts 223°
2026-04-16 22:53 35.16524 -77.98743 36036 ft 406 kts 223°
2026-04-16 22:53 35.12057 -78.02949 36022 ft 405 kts 223°
2026-04-16 22:54 35.07595 -78.07154 36029 ft 405 kts 223°
2026-04-16 22:54 35.03123 -78.11357 36030 ft 405 kts 223°
2026-04-16 22:55 34.98652 -78.15556 36031 ft 406 kts 223°
2026-04-16 22:55 34.94182 -78.19752 36031 ft 406 kts 223°
2026-04-16 22:56 34.89707 -78.23946 35997 ft 406 kts 223°
2026-04-16 22:56 34.85226 -78.28141 36005 ft 407 kts 223°
2026-04-16 22:57 34.80718 -78.32346 36007 ft 408 kts 223°
2026-04-16 22:57 34.76205 -78.36547 36013 ft 408 kts 223°
2026-04-16 22:58 34.71726 -78.40727 36027 ft 409 kts 223°
2026-04-16 22:58 34.67204 -78.44940 36013 ft 409 kts 222°
2026-04-16 22:59 34.62678 -78.49145 36021 ft 410 kts 222°
2026-04-16 22:59 34.58133 -78.53353 36027 ft 411 kts 222°
2026-04-16 23:00 34.53584 -78.57563 36033 ft 411 kts 222°
2026-04-16 23:00 34.49063 -78.61744 36042 ft 411 kts 222°
2026-04-16 23:01 34.44512 -78.65947 36036 ft 411 kts 222°
2026-04-16 23:01 34.39948 -78.70151 36061 ft 412 kts 221°
2026-04-16 23:02 34.35255 -78.74180 36066 ft 414 kts 219°
2026-04-16 23:02 34.30472 -78.78074 36058 ft 414 kts 219°
2026-04-16 23:03 34.25705 -78.81983 36061 ft 414 kts 220°
2026-04-16 23:03 34.20955 -78.85928 36034 ft 414 kts 220°
2026-04-16 23:04 34.16213 -78.89874 36039 ft 414 kts 220°
2026-04-16 23:04 34.11464 -78.93832 36052 ft 415 kts 220°
2026-04-16 23:05 34.06710 -78.97794 36060 ft 415 kts 220°
2026-04-16 23:05 34.01942 -79.01750 36066 ft 416 kts 220°
2026-04-16 23:06 33.97199 -79.05672 36049 ft 416 kts 219°
2026-04-16 23:06 33.92422 -79.09623 36069 ft 416 kts 220°
2026-04-16 23:07 33.87648 -79.13565 36071 ft 416 kts 220°
2026-04-16 23:07 33.82871 -79.17498 36072 ft 416 kts 220°
2026-04-16 23:08 33.78092 -79.21434 36072 ft 416 kts 220°
2026-04-16 23:08 33.73324 -79.25359 36058 ft 415 kts 219°
2026-04-16 23:09 33.68548 -79.29282 36050 ft 416 kts 219°
2026-04-16 23:09 33.64033 -79.33583 36058 ft 414 kts 224°
2026-04-16 23:10 33.59775 -79.37786 36065 ft 414 kts 224°
2026-04-16 23:10 33.55259 -79.42244 36078 ft 415 kts 224°
2026-04-16 23:11 33.50802 -79.46636 36099 ft 414 kts 224°
2026-04-16 23:11 33.46381 -79.50986 36080 ft 414 kts 224°
2026-04-16 23:12 33.41917 -79.55364 36087 ft 415 kts 224°
2026-04-16 23:12 33.37448 -79.59745 36084 ft 415 kts 224°
2026-04-16 23:13 33.32977 -79.64127 36018 ft 416 kts 224°
2026-04-16 23:13 33.30743 -79.66314 35759 ft 414 kts 224°
2026-04-16 23:13 33.28515 -79.68493 35291 ft 413 kts 224°
2026-04-16 23:14 33.26298 -79.70658 34846 ft 410 kts 224°
2026-04-16 23:14 33.24092 -79.72812 34385 ft 407 kts 223°
2026-04-16 23:14 33.21929 -79.74920 33924 ft 405 kts 223°
2026-04-16 23:14 33.19755 -79.77036 33459 ft 402 kts 223°
2026-04-16 23:15 33.15468 -79.81216 32583 ft 394 kts 223°
2026-04-16 23:15 33.13354 -79.83273 32141 ft 390 kts 223°
2026-04-16 23:15 33.11255 -79.85314 31702 ft 387 kts 223°
2026-04-16 23:16 33.09171 -79.87337 31275 ft 384 kts 223°
2026-04-16 23:16 33.07105 -79.89336 30847 ft 381 kts 223°
2026-04-16 23:16 33.05058 -79.91319 30428 ft 378 kts 223°
2026-04-16 23:16 33.03019 -79.93295 30012 ft 376 kts 223°
2026-04-16 23:17 33.01001 -79.95253 29570 ft 372 kts 223°
2026-04-16 23:17 32.99001 -79.97191 29192 ft 368 kts 223°
2026-04-16 23:17 32.97021 -79.99109 28807 ft 365 kts 223°
2026-04-16 23:17 32.95060 -80.01009 28427 ft 362 kts 223°
2026-04-16 23:18 32.93769 -80.02260 28171 ft 360 kts 223°
2026-04-16 23:18 32.91210 -80.04738 27677 ft 356 kts 223°
2026-04-16 23:18 32.89297 -80.06586 27311 ft 352 kts 223°
2026-04-16 23:18 32.87397 -80.08416 26951 ft 349 kts 223°
2026-04-16 23:19 32.86125 -80.09639 26711 ft 347 kts 223°
2026-04-16 23:19 32.84261 -80.11435 26359 ft 343 kts 223°
2026-04-16 23:19 32.82441 -80.13188 26016 ft 339 kts 223°
2026-04-16 23:19 32.80616 -80.14948 25658 ft 336 kts 222°
2026-04-16 23:20 32.78806 -80.16693 25308 ft 333 kts 222°
2026-04-16 23:20 32.77009 -80.18424 24934 ft 331 kts 222°
2026-04-16 23:20 32.75223 -80.20141 24582 ft 329 kts 222°
2026-04-16 23:20 32.73445 -80.21851 24229 ft 328 kts 222°
2026-04-16 23:21 32.71671 -80.23556 23861 ft 327 kts 222°
2026-04-16 23:21 32.69929 -80.25227 23472 ft 325 kts 222°
2026-04-16 23:21 32.68165 -80.26920 23071 ft 324 kts 222°
2026-04-16 23:21 32.66421 -80.28596 22702 ft 322 kts 222°
2026-04-16 23:22 32.64686 -80.30262 22329 ft 320 kts 221°
2026-04-16 23:22 32.62961 -80.31915 21962 ft 318 kts 221°
2026-04-16 23:22 32.61248 -80.33554 21581 ft 316 kts 221°
2026-04-16 23:22 32.59539 -80.35188 21207 ft 314 kts 221°
2026-04-16 23:23 32.57844 -80.36815 20836 ft 312 kts 221°
2026-04-16 23:23 32.56183 -80.38408 20478 ft 310 kts 221°
2026-04-16 23:23 32.54508 -80.40012 20111 ft 308 kts 221°
2026-04-16 23:23 32.52843 -80.41607 19738 ft 307 kts 222°
2026-04-16 23:24 32.51438 -80.43524 19365 ft 317 kts 243°
2026-04-16 23:24 32.50750 -80.46024 18963 ft 324 kts 259°
2026-04-16 23:24 32.50433 -80.48671 18546 ft 325 kts 262°
2026-04-16 23:24 32.50159 -80.51328 18104 ft 324 kts 262°
2026-04-16 23:25 32.49888 -80.53981 17648 ft 323 kts 262°
2026-04-16 23:25 32.49620 -80.56616 17092 ft 324 kts 262°
2026-04-16 23:25 32.49348 -80.59255 16469 ft 320 kts 262°
2026-04-16 23:25 32.49071 -80.61856 15863 ft 317 kts 262°
2026-04-16 23:26 32.48788 -80.64426 15255 ft 313 kts 262°
2026-04-16 23:26 32.48499 -80.66971 14669 ft 310 kts 262°
2026-04-16 23:26 32.48204 -80.69485 14092 ft 307 kts 262°
2026-04-16 23:26 32.47955 -80.71984 13480 ft 304 kts 260°
2026-04-16 23:27 32.47213 -80.74263 12863 ft 303 kts 238°
2026-04-16 23:27 32.45934 -80.76241 12259 ft 301 kts 232°
2026-04-16 23:27 32.44596 -80.78144 11821 ft 301 kts 232°
2026-04-16 23:27 32.43253 -80.80040 11369 ft 301 kts 232°
2026-04-16 23:28 32.41902 -80.81942 10951 ft 301 kts 232°
2026-04-16 23:28 32.40552 -80.83844 10529 ft 301 kts 232°
2026-04-16 23:28 32.39204 -80.85744 10114 ft 301 kts 232°
2026-04-16 23:28 32.37853 -80.87649 9670 ft 301 kts 232°
2026-04-16 23:29 32.36510 -80.89550 9218 ft 301 kts 232°
2026-04-16 23:29 32.35180 -80.91444 8761 ft 295 kts 232°
2026-04-16 23:29 32.33903 -80.93250 8316 ft 279 kts 232°
2026-04-16 23:29 32.32677 -80.94994 7885 ft 273 kts 232°
2026-04-16 23:30 32.31475 -80.96723 7453 ft 271 kts 232°
2026-04-16 23:30 32.30275 -80.98468 7004 ft 275 kts 232°
2026-04-16 23:30 32.29083 -81.00213 6517 ft 267 kts 232°
2026-04-16 23:30 32.27939 -81.01889 6021 ft 256 kts 232°
2026-04-16 23:31 32.26925 -81.03559 5518 ft 245 kts 248°
2026-04-16 23:31 32.26508 -81.05434 5073 ft 231 kts 261°
2026-04-16 23:31 32.26280 -81.07268 4566 ft 222 kts 262°
2026-04-16 23:31 32.26078 -81.09045 4093 ft 214 kts 262°
2026-04-16 23:32 32.25865 -81.10726 3634 ft 200 kts 255°
2026-04-16 23:32 32.25216 -81.12124 3135 ft 191 kts 234°
2026-04-16 23:32 32.24425 -81.13354 2650 ft 185 kts 232°
2026-04-16 23:32 32.23663 -81.14563 2177 ft 183 kts 232°
2026-04-16 23:33 32.22934 -81.15766 1681 ft 174 kts 232°
2026-04-16 23:33 32.22266 -81.16911 1215 ft 163 kts 232°
2026-04-16 23:33 32.21659 -81.17947 1045 ft 147 kts 230°
2026-04-16 23:33 32.20972 -81.18788 934 ft 139 kts 210°
2026-04-16 23:34 32.20112 -81.19324 970 ft 139 kts 205°
2026-04-16 23:34 32.19238 -81.19809 1024 ft 142 kts 200°
2026-04-16 23:34 32.18292 -81.20061 919 ft 139 kts 178°
2026-04-16 23:34 32.17331 -81.20029 875 ft 138 kts 180°
2026-04-16 23:35 32.16346 -81.20025 662 ft 142 kts 180°
2026-04-16 23:35 32.15361 -81.20028 527 ft 142 kts 179°
2026-04-16 23:35 32.14365 -81.20019 293 ft 142 kts 178°
2026-04-16 23:35 32.13387 -81.20014 69 ft 139 kts 177°
2026-04-16 23:36 32.12562 -81.20007 51 ft 85 kts 180°
2026-04-16 23:36 32.12276 -81.20005 49 ft 1 kts 180°
2026-04-16 23:36 32.12259 -81.20005 49 ft 6 kts 180°
2026-04-16 23:36 32.12195 -81.20006 49 ft 13 kts 188°
2026-04-16 23:37 32.12152 -81.20096 48 ft 15 kts 271°
2026-04-16 23:37 32.12166 -81.20179 46 ft 10 kts 315°
2026-04-16 23:37 32.12239 -81.20198 46 ft 12 kts 360°
2026-04-16 23:37 32.12322 -81.20198 47 ft 12 kts 360°
2026-04-16 23:38 32.12404 -81.20198 49 ft 12 kts 360°
2026-04-16 23:38 32.12486 -81.20200 49 ft 12 kts 353°
2026-04-16 23:38 32.12570 -81.20247 48 ft 15 kts 330°
2026-04-16 23:38 32.12662 -81.20307 48 ft 15 kts 330°
2026-04-16 23:39 32.12763 -81.20332 50 ft 15 kts
2026-04-16 23:39 32.12864 -81.20332 52 ft 14 kts 360°
2026-04-16 23:39 32.12965 -81.20332 54 ft 15 kts 360°
2026-04-16 23:39 32.13070 -81.20332 54 ft 15 kts
2026-04-16 23:40 32.13180 -81.20330 53 ft 17 kts
2026-04-16 23:40 32.13305 -81.20330 53 ft 18 kts 359°
2026-04-16 23:40 32.13427 -81.20346 52 ft 17 kts 324°
2026-04-16 23:40 32.13447 -81.20496 44 ft 21 kts 270°
2026-04-16 23:41 32.13448 -81.20671 40 ft 22 kts 270°
2026-04-16 23:41 32.13449 -81.20841 38 ft 10 kts 270°
2026-04-16 23:41 32.13460 -81.20884 36 ft 4 kts 334°
2026-04-16 23:41 32.13490 -81.20885 38 ft 2 kts
2026-04-16 23:42 32.13507 -81.20885 38 ft 3 kts
2026-04-16 23:42 32.13518 -81.20885 38 ft 1 kts 360°
2026-04-16 23:42 32.13521 -81.20885 38 ft 0 kts 360°